LOT5SR EPWA-LDSP

Flight info

Callsign LOT5SR
Flight time N/A
Altitude 34000
Route EVIN7G EVINA KUKAM BABKO PATAK OSDUK KENEM KENE1Z
Aircraft B38M/M-SDE1E2E3FGHIJ2J3J4J5M1RWXYZ/HB1

Departure

Time 2026-05-01 14:03
Airport Warsaw Chopin Airport (EPWA)

Arrival

Time N/A
Airport Split Saint Jerome Airport (LDSP)
Time Latitude Longitude Altitude Speed Heading
2026-05-01 13:35 52.16936 20.96897 333 ft 0 kts 277°
2026-05-01 13:58 52.16935 20.96848 331 ft 8 kts 253°
2026-05-01 13:58 52.16893 20.96835 331 ft 6 kts 157°
2026-05-01 13:58 52.16859 20.96863 332 ft 4 kts 153°
2026-05-01 13:59 52.16833 20.96885 332 ft 5 kts 152°
2026-05-01 13:59 52.16747 20.96959 333 ft 22 kts 152°
2026-05-01 13:59 52.16649 20.97106 336 ft 17 kts 114°
2026-05-01 13:59 52.16594 20.97302 337 ft 20 kts 116°
2026-05-01 14:00 52.16536 20.97507 338 ft 19 kts 114°
2026-05-01 14:00 52.16478 20.97712 337 ft 19 kts 115°
2026-05-01 14:00 52.16401 20.97797 336 ft 14 kts 197°
2026-05-01 14:00 52.16332 20.97743 334 ft 9 kts 206°
2026-05-01 14:01 52.16303 20.97687 334 ft 5 kts 282°
2026-05-01 14:01 52.16309 20.97659 334 ft 0 kts 295°
2026-05-01 14:01 52.16310 20.97657 334 ft 1 kts 295°
2026-05-01 14:02 52.16393 20.97357 338 ft 71 kts 295°
2026-05-01 14:02 52.16685 20.96301 335 ft 129 kts 293°
2026-05-01 14:02 52.17049 20.94990 496 ft 169 kts 295°
2026-05-01 14:03 52.17340 20.93903 998 ft 175 kts 296°
2026-05-01 14:03 52.17864 20.92120 1841 ft 183 kts 301°
2026-05-01 14:03 52.18383 20.90230 2556 ft 190 kts 288°
2026-05-01 14:03 52.18332 20.87991 3087 ft 212 kts 259°
2026-05-01 14:04 52.17870 20.85581 3564 ft 233 kts 257°
2026-05-01 14:04 52.17427 20.82994 4145 ft 248 kts 260°
2026-05-01 14:04 52.17011 20.80178 4850 ft 261 kts 261°
2026-05-01 14:04 52.16594 20.77227 5495 ft 276 kts 261°
2026-05-01 14:05 52.16153 20.74166 6263 ft 285 kts 259°
2026-05-01 14:05 52.15442 20.71108 7135 ft 296 kts 243°
2026-05-01 14:05 52.14095 20.68555 7944 ft 306 kts 222°
2026-05-01 14:05 52.12412 20.66443 8712 ft 313 kts 217°
2026-05-01 14:06 52.10625 20.64383 9554 ft 318 kts 217°
2026-05-01 14:06 52.08827 20.62269 10341 ft 323 kts 218°
2026-05-01 14:06 52.07008 20.60050 10870 ft 338 kts 219°
2026-05-01 14:06 52.05125 20.57695 11328 ft 353 kts 219°
2026-05-01 14:07 52.03146 20.55197 11793 ft 368 kts 219°
2026-05-01 14:07 52.01110 20.52625 12506 ft 374 kts 219°
2026-05-01 14:07 51.99049 20.50029 13216 ft 379 kts 219°
2026-05-01 14:08 51.94736 20.45090 14602 ft 388 kts 206°
2026-05-01 14:08 51.92186 20.43692 15290 ft 390 kts 188°
2026-05-01 14:08 51.89496 20.43114 15950 ft 393 kts 182°
2026-05-01 14:08 51.86753 20.42807 16594 ft 396 kts 180°
2026-05-01 14:09 51.84000 20.42563 17300 ft 399 kts 180°
2026-05-01 14:09 51.81238 20.42288 17906 ft 404 kts 180°
2026-05-01 14:09 51.78421 20.41953 18521 ft 408 kts 181°
2026-05-01 14:09 51.75606 20.41569 19136 ft 411 kts 181°
2026-05-01 14:10 51.72741 20.41150 19684 ft 416 kts 182°
2026-05-01 14:10 51.69071 20.40595 20450 ft 420 kts 182°
2026-05-01 14:10 51.66174 20.40152 21008 ft 423 kts 182°
2026-05-01 14:10 51.63231 20.39704 21585 ft 426 kts 181°
2026-05-01 14:11 51.60290 20.39258 22104 ft 430 kts 182°
2026-05-01 14:11 51.54318 20.38352 23112 ft 437 kts 181°
2026-05-01 14:11 51.51260 20.37891 23669 ft 439 kts 181°
2026-05-01 14:12 51.48219 20.37433 24190 ft 442 kts 181°
2026-05-01 14:12 51.45148 20.36972 24672 ft 446 kts 181°
2026-05-01 14:12 51.42068 20.36495 25135 ft 451 kts 182°
2026-05-01 14:12 51.38968 20.35784 25648 ft 455 kts 187°
2026-05-01 14:13 51.35858 20.34655 26056 ft 461 kts 191°
2026-05-01 14:13 51.33829 20.33733 26382 ft 463 kts 193°
2026-05-01 14:13 51.29700 20.31633 26957 ft 468 kts 195°
2026-05-01 14:13 51.26651 20.29999 27414 ft 470 kts 195°
2026-05-01 14:14 51.23542 20.28319 27788 ft 473 kts 195°
2026-05-01 14:14 51.20426 20.26643 28202 ft 476 kts 195°
2026-05-01 14:14 51.17292 20.24971 28669 ft 477 kts 195°
2026-05-01 14:14 51.14121 20.23297 29068 ft 479 kts 195°
2026-05-01 14:15 51.10979 20.21653 29380 ft 483 kts 195°
2026-05-01 14:15 51.07778 20.19988 29749 ft 486 kts 194°
2026-05-01 14:15 51.04535 20.18312 30126 ft 489 kts 194°
2026-05-01 14:15 51.01324 20.16661 30498 ft 491 kts 194°
2026-05-01 14:16 50.98066 20.14987 30862 ft 493 kts 194°
2026-05-01 14:16 50.94786 20.13304 31180 ft 495 kts 195°
2026-05-01 14:16 50.91502 20.11621 31490 ft 498 kts 195°
2026-05-01 14:16 50.88203 20.09936 31747 ft 501 kts 195°
2026-05-01 14:17 50.84914 20.08257 32259 ft 498 kts 195°
2026-05-01 14:17 50.81646 20.06591 32667 ft 497 kts 195°
2026-05-01 14:17 50.78367 20.04924 33016 ft 497 kts 195°
2026-05-01 14:17 50.75072 20.03252 33391 ft 496 kts 195°
2026-05-01 14:18 50.71829 20.01613 33750 ft 496 kts 195°
2026-05-01 14:18 50.68531 19.99947 34094 ft 496 kts 195°
2026-05-01 14:18 50.65247 19.98288 34271 ft 498 kts 195°
2026-05-01 14:18 50.63032 19.97172 34285 ft 500 kts 195°
2026-05-01 14:19 50.55352 19.93310 34289 ft 496 kts 195°
2026-05-01 14:19 50.48793 19.90013 34287 ft 497 kts 195°
2026-05-01 14:20 50.38980 19.85111 34292 ft 496 kts 195°
2026-05-01 14:21 50.32420 19.81847 34290 ft 497 kts 195°
2026-05-01 14:21 50.25896 19.78603 34292 ft 495 kts 195°
2026-05-01 14:22 50.15990 19.73713 34297 ft 498 kts 195°
2026-05-01 14:22 50.09423 19.70474 34300 ft 495 kts 195°
2026-05-01 14:23 50.02832 19.67224 34299 ft 496 kts 195°
2026-05-01 14:23 49.96301 19.64018 34298 ft 495 kts 195°
2026-05-01 14:24 49.89735 19.60813 34300 ft 496 kts 195°
2026-05-01 14:24 49.83118 19.57590 34300 ft 495 kts 195°
2026-05-01 14:25 49.76574 19.54413 34298 ft 496 kts 195°
2026-05-01 14:25 49.69996 19.51223 34293 ft 497 kts 195°
2026-05-01 14:26 49.60107 19.46699 34291 ft 494 kts 189°
2026-05-01 14:27 49.53357 19.44817 34288 ft 492 kts 185°
2026-05-01 14:27 49.46615 19.43390 34282 ft 491 kts 184°
2026-05-01 14:28 49.36449 19.41250 34280 ft 492 kts 185°
2026-05-01 14:28 49.29682 19.39757 34280 ft 492 kts 185°
2026-05-01 14:29 49.22895 19.38240 34280 ft 491 kts 185°
2026-05-01 14:30 49.09400 19.35207 34278 ft 493 kts 185°
2026-05-01 14:31 48.99283 19.32931 34274 ft 493 kts 184°
2026-05-01 14:31 48.92500 19.31417 34278 ft 491 kts 184°
2026-05-01 14:32 48.85709 19.29901 34291 ft 493 kts 184°
2026-05-01 14:32 48.78953 19.28402 34296 ft 494 kts 184°
2026-05-01 14:33 48.72198 19.26904 34294 ft 494 kts 184°
2026-05-01 14:33 48.65406 19.25404 34292 ft 493 kts 184°
2026-05-01 14:34 48.58631 19.23912 34286 ft 493 kts 184°
2026-05-01 14:34 48.53013 19.22675 34289 ft 493 kts 184°
2026-05-01 14:35 48.45111 19.20945 34281 ft 494 kts 184°
2026-05-01 14:35 48.38301 19.19454 34278 ft 493 kts 184°
2026-05-01 14:36 48.31529 19.17979 34276 ft 493 kts 184°
2026-05-01 14:36 48.24748 19.16500 34283 ft 493 kts 184°
2026-05-01 14:37 48.17949 19.15026 34285 ft 494 kts 184°
2026-05-01 14:37 48.11192 19.13572 34288 ft 494 kts 184°
2026-05-01 14:38 48.04431 19.11640 34285 ft 498 kts 191°
2026-05-01 14:38 47.97787 19.08778 34285 ft 498 kts 194°
2026-05-01 14:39 47.91182 19.05646 34280 ft 498 kts 194°
2026-05-01 14:39 47.84590 19.02550 34281 ft 497 kts 194°
2026-05-01 14:40 47.78014 18.99536 34281 ft 498 kts 194°
2026-05-01 14:40 47.71387 18.96535 34282 ft 499 kts 193°
2026-05-01 14:41 47.64765 18.93561 34286 ft 497 kts 193°
2026-05-01 14:41 47.58136 18.90598 34290 ft 498 kts 193°
2026-05-01 14:42 47.51528 18.87659 34297 ft 499 kts 193°
2026-05-01 14:42 47.44948 18.84737 34303 ft 497 kts 193°
2026-05-01 14:43 47.38297 18.81791 34303 ft 497 kts 193°
2026-05-01 14:43 47.31704 18.78883 34300 ft 497 kts 193°
2026-05-01 14:44 47.25070 18.75963 34290 ft 497 kts 193°
2026-05-01 14:44 47.15174 18.71614 34284 ft 496 kts 193°
2026-05-01 14:45 47.05271 18.67278 34280 ft 495 kts 193°
2026-05-01 14:46 46.98649 18.64390 34280 ft 496 kts 193°
2026-05-01 14:46 46.88696 18.60070 34280 ft 498 kts 193°
2026-05-01 14:47 46.82090 18.57206 34279 ft 497 kts 193°
2026-05-01 14:48 46.72140 18.52903 34278 ft 499 kts 193°
2026-05-01 14:48 46.62202 18.48632 34279 ft 497 kts 193°
2026-05-01 14:49 46.48910 18.42946 34283 ft 499 kts 193°
2026-05-01 14:50 46.35619 18.37282 34293 ft 500 kts 192°
2026-05-01 14:51 46.25636 18.33047 34297 ft 500 kts 192°
2026-05-01 14:52 46.15691 18.28840 34292 ft 500 kts 192°
2026-05-01 14:53 46.05673 18.24624 34301 ft 499 kts 192°
2026-05-01 14:53 45.98983 18.21819 34299 ft 498 kts 191°
2026-05-01 14:54 45.92355 18.19053 34300 ft 498 kts 191°
2026-05-01 14:54 45.85724 18.16288 34300 ft 499 kts 191°
2026-05-01 14:55 45.79050 18.13488 34295 ft 499 kts 193°
2026-05-01 14:55 45.72523 18.10148 34297 ft 504 kts 197°
2026-05-01 14:56 45.66008 18.06345 34297 ft 505 kts 198°
2026-05-01 14:56 45.59535 18.02528 34298 ft 505 kts 198°
2026-05-01 14:57 45.53073 17.98770 34298 ft 505 kts 198°
2026-05-01 14:57 45.43334 17.93199 34297 ft 506 kts 198°
2026-05-01 14:58 45.36757 17.89481 34295 ft 506 kts 198°
2026-05-01 14:58 45.30265 17.85819 34296 ft 504 kts 198°
2026-05-01 14:59 45.23734 17.82146 34297 ft 505 kts 198°
2026-05-01 14:59 45.17191 17.78478 34289 ft 505 kts 197°
2026-05-01 15:00 45.07393 17.73001 34279 ft 506 kts 197°
2026-05-01 15:01 45.00879 17.69365 34276 ft 504 kts 197°
2026-05-01 15:01 44.94387 17.65762 34270 ft 503 kts 198°
2026-05-01 15:02 44.87858 17.62134 34277 ft 504 kts 197°
2026-05-01 15:02 44.81292 17.58498 34279 ft 504 kts 197°
2026-05-01 15:03 44.74796 17.54916 34286 ft 501 kts 198°
2026-05-01 15:03 44.68337 17.51360 34266 ft 500 kts 198°
2026-05-01 15:04 44.61845 17.47792 34270 ft 501 kts 199°
2026-05-01 15:04 44.55410 17.44262 34264 ft 499 kts 198°
2026-05-01 15:05 44.48938 17.40709 34246 ft 496 kts 198°
2026-05-01 15:05 44.42505 17.37202 34241 ft 497 kts 198°
2026-05-01 15:06 44.36088 17.33702 34223 ft 495 kts 198°
2026-05-01 15:06 44.29667 17.30213 34229 ft 496 kts 198°
2026-05-01 15:07 44.23293 17.26765 34212 ft 492 kts 198°
2026-05-01 15:07 44.16887 17.23308 34202 ft 495 kts 198°
2026-05-01 15:08 44.10507 17.19873 34206 ft 492 kts 198°
2026-05-01 15:08 44.04277 17.16520 34157 ft 470 kts 198°
2026-05-01 15:08 44.01259 17.14893 33886 ft 464 kts 198°
2026-05-01 15:09 43.98251 17.13277 33460 ft 464 kts 198°
2026-05-01 15:09 43.95219 17.11655 32941 ft 467 kts 197°
2026-05-01 15:09 43.92209 17.10048 32340 ft 469 kts 197°
2026-05-01 15:09 43.89183 17.08433 31767 ft 470 kts 196°
2026-05-01 15:10 43.86199 17.06845 31216 ft 469 kts 196°
2026-05-01 15:10 43.80132 17.03614 30074 ft 467 kts 196°
2026-05-01 15:10 43.77143 17.02023 29521 ft 464 kts 197°
2026-05-01 15:11 43.74113 17.00409 28957 ft 462 kts 197°
2026-05-01 15:11 43.68206 16.97269 27853 ft 448 kts 197°
2026-05-01 15:11 43.65324 16.95729 27308 ft 439 kts 197°
2026-05-01 15:12 43.62573 16.94102 26798 ft 431 kts 202°
2026-05-01 15:12 43.57333 16.90238 25773 ft 425 kts 207°
2026-05-01 15:12 43.54809 16.88218 25243 ft 423 kts 208°
2026-05-01 15:13 43.47255 16.82171 23720 ft 414 kts 208°
2026-05-01 15:14 43.42321 16.78279 22716 ft 408 kts 208°
2026-05-01 15:14 43.39866 16.76354 22202 ft 405 kts 208°
2026-05-01 15:14 43.35462 16.71728 21230 ft 397 kts 232°
2026-05-01 15:15 43.33029 16.65176 20283 ft 382 kts 258°
2026-05-01 15:15 43.32134 16.58135 19359 ft 368 kts 271°
2026-05-01 15:16 43.31898 16.51244 18466 ft 359 kts 274°
2026-05-01 15:16 43.31696 16.44456 17597 ft 353 kts 272°
2026-05-01 15:17 43.31429 16.37808 16712 ft 348 kts 272°
2026-05-01 15:18 43.30983 16.28032 15423 ft 340 kts 271°
2026-05-01 15:18 43.30830 16.24784 15000 ft 337 kts 271°
2026-05-01 15:19 43.30228 16.15298 13744 ft 335 kts 260°
2026-05-01 15:19 43.27816 16.09914 12944 ft 337 kts 226°
2026-05-01 15:19 43.26151 16.07727 12515 ft 335 kts 223°
2026-05-01 15:20 43.22772 16.03387 11671 ft 332 kts 224°
2026-05-01 15:20 43.21116 16.01162 11235 ft 330 kts 225°
2026-05-01 15:20 43.19509 15.98955 10814 ft 329 kts 225°
2026-05-01 15:21 43.18022 15.96605 10598 ft 319 kts 236°
2026-05-01 15:21 43.17039 15.94021 10386 ft 306 kts 259°
2026-05-01 15:21 43.16962 15.91198 10189 ft 288 kts 287°
2026-05-01 15:21 43.17676 15.88727 9812 ft 279 kts 307°
2026-05-01 15:22 43.20188 15.84881 9084 ft 266 kts 333°
2026-05-01 15:22 43.21869 15.84008 8767 ft 254 kts 356°
2026-05-01 15:22 43.23609 15.83955 8418 ft 249 kts
2026-05-01 15:23 43.25266 15.84539 8071 ft 244 kts 28°
2026-05-01 15:23 43.26602 15.85926 7750 ft 241 kts 45°
2026-05-01 15:23 43.27748 15.87583 7395 ft 241 kts 46°
2026-05-01 15:23 43.28900 15.89229 7092 ft 238 kts 45°
2026-05-01 15:24 43.30059 15.90850 6787 ft 236 kts 45°
2026-05-01 15:24 43.31193 15.92431 6486 ft 234 kts 45°
2026-05-01 15:24 43.32332 15.94050 6128 ft 234 kts 46°
2026-05-01 15:24 43.33441 15.95655 5799 ft 233 kts 46°
2026-05-01 15:25 43.34548 15.97259 5470 ft 232 kts 46°
2026-05-01 15:25 43.35656 15.98858 5174 ft 230 kts 45°
2026-05-01 15:25 43.36744 16.00427 4927 ft 227 kts 45°
2026-05-01 15:25 43.37834 16.02001 4693 ft 223 kts 46°
2026-05-01 15:26 43.38895 16.03533 4439 ft 220 kts 45°
2026-05-01 15:26 43.39938 16.05042 4218 ft 216 kts 46°
2026-05-01 15:26 43.40957 16.06520 4003 ft 211 kts 46°
2026-05-01 15:26 43.41898 16.08047 3696 ft 207 kts 51°
2026-05-01 15:27 43.42739 16.09605 3416 ft 199 kts 52°
2026-05-01 15:27 43.43522 16.11100 3168 ft 190 kts 52°
2026-05-01 15:27 43.44277 16.12530 2941 ft 182 kts 52°
2026-05-01 15:28 43.45974 16.14932 2427 ft 175 kts 47°
2026-05-01 15:28 43.46636 16.16372 2010 ft 182 kts 62°
2026-05-01 15:28 43.47163 16.17738 2179 ft 138 kts 54°
2026-05-01 15:29 43.48240 16.19657 1794 ft 124 kts 49°
2026-05-01 15:29 43.48763 16.20594 1618 ft 123 kts 49°
2026-05-01 15:29 43.49851 16.22493 1328 ft 126 kts 52°
2026-05-01 15:30 43.50724 16.24210 1045 ft 132 kts 50°
2026-05-01 15:31 43.53218 16.28566 123 ft 134 kts 56°
2026-05-01 15:31 43.54295 16.30538 522 ft 147 kts 53°
2026-05-01 15:32 43.55203 16.33826 867 ft 180 kts 88°
2026-05-01 15:32 43.54673 16.37093 1038 ft 172 kts 133°
2026-05-01 15:33 43.51368 16.39276 1858 ft 192 kts 186°
2026-05-01 15:34 43.48240 16.35638 2835 ft 210 kts 237°